[[{"header":{"parameterUnit":"m.s-1","parameterCategory":1,"la1":30.2991,"la2":30.254,"lo1":-89.0895,"lo2":-89.0444,"dy":0.0017,"dx":0.0017,"nx":28,"ny":28,"refTime":"2023-07-27T03:00:00:Z","depth":0,"parameterNumber":2,"parameterNumberName":"U-component_of_WINDS"},"data":[0,0,0,0,0,0,0,0,0,0,0,0,0,0,0,0,0,0,0,0,0,0,0,0,0,0,0,0,0,0,0,0,0,0,0,0,0,0,0,0,0,0,0,0,0,0,0,0,0,0,0,0,0,0,0,0,0,0,-0.1323,-0.1321,0,-0.1172,-0.1171,-0.1169,-0.1214,-0.1217,-0.122,-0.1223,-0.1065,-0.1058,-0.1051,0,0,0,0,0,0,0,0,0,0,0,0,0,-0.1647,-0.1641,-0.1323,-0.1321,-0.1319,-0.1173,-0.1171,-0.1169,-0.1214,-0.1217,-0.1221,-0.1225,-0.1068,-0.1059,-0.1051,0,0,0,0,0,0,0,0,0,0,0,0,0,-0.1502,-0.1639,-0.1323,-0.1324,-0.1323,-0.1173,-0.1171,-0.1168,-0.1213,-0.1217,-0.1222,-0.1227,-0.107,-0.106,-0.1049,-0.0889,0,0,-0.1017,-0.1012,0,0,0,0,0,0,0,0,-0.151,-0.149,-0.1326,-0.1324,-0.1322,-0.1217,-0.1227,-0.1074,-0.1212,-0.1254,-0.1223,-0.1229,-0.1112,-0.1098,-0.1059,-0.0881,-0.0875,-0.1016,-0.1009,-0.1005,-0.1002,0,0,0,0,0,0,0,-0.152,-0.1497,-0.1263,-0.1323,-0.1321,-0.1331,-0.1316,-0.1198,-0.1158,-0.1251,-0.1254,-0.1236,-0.1111,-0.1069,-0.1056,-0.0872,-0.1016,-0.1006,-0.1,-0.0996,-0.0557,-0.0552,0,0,0,0,0,0,-0.1532,-0.1505,-0.1268,-0.1259,-0.143,-0.1322,-0.1304,-0.1246,-0.116,-0.1151,-0.1232,-0.1238,-0.1085,-0.1068,-0.105,-0.0858,-0.1005,-0.0995,-0.0988,-0.0562,-0.0555,-0.055,0,0,0,0,0,0,-0.1539,-0.1511,-0.1274,-0.1383,-0.1353,-0.1311,-0.1245,-0.124,-0.1198,-0.1145,-0.1138,-0.1196,-0.1088,-0.1065,-0.0929,-0.0853,-0.099,-0.098,-0.0568,-0.056,-0.0553,-0.047,0,0,0,0,0,0,-0.1548,-0.1513,-0.1452,-0.1381,-0.1347,-0.1156,-0.124,-0.1234,-0.118,-0.1187,-0.111,-0.1102,-0.109,-0.0945,-0.0919,-0.084,-0.0972,-0.0575,-0.0564,-0.0555,-0.048,-0.0461,-0.0444,0,0,0,0,0,-0.1559,-0.1433,-0.1448,-0.142,-0.127,-0.1152,-0.1132,-0.1123,-0.1174,-0.1112,-0.1078,-0.1104,-0.0865,-0.0931,-0.0901,-0.0819,-0.0579,-0.0567,-0.0556,-0.0488,-0.0464,-0.0445,0,0,0,0,0,0,-0.1494,-0.1424,-0.144,-0.1287,-0.1225,-0.116,-0.1081,-0.1098,-0.1019,-0.1029,-0.102,-0.1002,-0.0863,-0.0827,-0.0901,-0.066,-0.073,-0.0712,-0.0688,-0.0665,-0.0648,-0.066,-0.0963,0,0,0,0,0,-0.1462,-0.1373,-0.1316,-0.1187,-0.1155,-0.1123,-0.1071,-0.107,-0.1004,-0.0978,-0.0934,-0.0869,-0.0779,-0.072,-0.0635,-0.0475,-0.0459,-0.0404,-0.0386,-0.0372,-0.0356,-0.027,-0.0245,-0.0511,-0.0511,-0.0511,0,0,-0.1395,-0.1346,-0.1289,-0.1172,-0.1124,-0.1031,-0.1101,-0.0999,-0.0929,-0.0962,-0.0831,-0.0797,-0.0723,-0.0575,-0.0507,-0.0541,-0.0279,-0.0357,-0.0346,-0.0338,-0.0255,-0.023,-0.0208,-0.0503,-0.0505,-0.0506,0,0,-0.1225,-0.1179,-0.1067,-0.1018,-0.0944,-0.0924,-0.0898,-0.0829,-0.0808,-0.0677,-0.07,-0.0617,-0.0463,-0.041,-0.0363,-0.0175,-0.0196,-0.0147,-0.0055,0.0029,0.005,0.0068,0.0135,0.0158,-0.0132,-0.0132,-0.0131,0,-0.1151,-0.1012,-0.1007,-0.0903,-0.0851,-0.0878,-0.0765,-0.0717,-0.0619,-0.0582,-0.0621,-0.043,-0.0382,-0.0222,-0.0177,-0.0137,-0.0107,-0.0156,0.0046,0.0065,0.0082,0.0146,0.0171,-0.0126,-0.0127,-0.0127,-0.0128,0,-0.0925,-0.0828,-0.0746,-0.0653,-0.0592,-0.0484,-0.0462,-0.04,-0.0404,-0.038,-0.0247,-0.0191,-0.0095,-0.0057,-0.0059,0.0102,0.0079,0.0043,-0.0027,0.0113,0.0172,0.0197,-0.0118,-0.012,-0.0122,-0.0123,0,0,-0.0708,-0.0615,-0.0585,-0.0544,-0.0466,-0.0391,-0.0284,-0.0192,-0.014,-0.0072,0.0018,0.0148,0.0115,0.0168,0.0172,0.0245,0.0389,0.02,0.0202,0.0232,0.0569,0.0595,0.0623,0.0375,0.038,0.0384,0.0563,0,-0.0533,-0.0347,-0.0339,-0.0169,-0.0081,-0.0106,-0.0013,0.0045,0.0071,0.015,0.0178,0.027,0.022,0.0251,0.0323,0.0356,0.0457,0.0344,0.0459,0.0463,0.044,0.0654,0.0683,0.0849,0.0586,0.059,0.0593,0,-0.0303,-0.0229,-0.0051,0.0012,0.005,0.0133,0.0217,0.0293,0.0359,0.0372,0.0431,0.0423,0.0532,0.0458,0.0609,0.0531,0.0579,0.0602,0.0609,0.062,0.0536,0.067,0.0902,0.0927,0.063,0.0627,0.0624,0,-0.0164,-0.0021,0.0104,0.014,0.0218,0.0277,0.0312,0.0373,0.0427,0.0501,0.0536,0.0622,0.067,0.0737,0.0752,0.0697,0.0903,0.083,0.0917,0.0916,0.0961,0.0958,0.1203,0.0993,0.0993,0.0992,0.0992,0,0.0031,0.0141,0.0167,0.0243,0.0365,0.0373,0.0494,0.0526,0.058,0.0662,0.0647,0.0725,0.0741,0.0823,0.0836,0.0958,0.098,0.0994,0.0996,0.0995,0.0993,0.1026,0.1014,0.0999,0.0997,0.0996,0.0995,0,0.0206,0.0228,0.0362,0.0424,0.0442,0.0529,0.0583,0.0656,0.0679,0.0784,0.0809,0.0845,0.094,0.0962,0.1076,0.1085,0.1229,0.1221,0.1207,0.1206,0.1291,0.1282,0.1565,0.1602,0.1369,0.1371,0.1373,0,0.0329,0.0412,0.0482,0.0536,0.0573,0.066,0.0714,0.0725,0.0783,0.0863,0.0927,0.102,0.1094,0.1247,0.1284,0.1371,0.1364,0.1457,0.1377,0.1372,0.1364,0.1358,0.1366,0.1472,0.1475,0.1477,0.1478,0,0.0544,0.055,0.0628,0.0711,0.0776,0.0842,0.0904,0.0949,0.0969,0.1034,0.113,0.1188,0.1303,0.1395,0.1482,0.1519,0.1502,0.1503,0.1527,0.1527,0.1515,0.1521,0.1247,0.1497,0.1495,0.1493,0.1492,0.1492,0.0696,0.0768,0.0828,0.0916,0.0964,0.1022,0.1094,0.1125,0.1205,0.1298,0.13,0.1404,0.1467,0.1581,0.1623,0.1705,0.1676,0.1712,0.1721,0.1729,0.1736,0.1502,0.1721,0.172,0.172,0.172,0.1719,0,0.0909,0.0945,0.1026,0.1113,0.1182,0.1159,0.1227,0.1286,0.1378,0.1437,0.151,0.162,0.1709,0.1752,0.184,0.1897,0.1892,0.192,0.1916,0.1924,0.1757,0.1727,0.1923,0.1923,0.1923,0.1923,0.1923,0.1923,0.1027,0.1148,0.1161,0.1305,0.1342,0.1443,0.1484,0.1537,0.1584,0.1707,0.178,0.1807,0.186,0.1951,0.2032,0.2042,0.2075,0.2107,0.2113,0.1957,0.1936,0.1916,0.1887,0.2114,0.2114,0.2273,0.2274,0.2276]},{"header":{"parameterUnit":"m.s-1","parameterCategory":1,"la1":30.2991,"la2":30.254,"lo1":-89.0895,"lo2":-89.0444,"dy":0.0017,"dx":0.0017,"nx":28,"ny":28,"refTime":"2023-07-27T03:00:00:Z","depth":0,"parameterNumber":3,"parameterNumberName":"V-component_of_WINDS"},"data":[0,0,0,0,0,0,0,0,0,0,0,0,0,0,0,0,0,0,0,0,0,0,0,0,0,0,0,0,0,0,0,0,0,0,0,0,0,0,0,0,0,0,0,0,0,0,0,0,0,0,0,0,0,0,0,0,0,0,2.0142,2.0142,0,2.0127,2.0126,2.0126,2.0111,2.0111,2.011,2.011,2.0091,2.0091,2.0091,0,0,0,0,0,0,0,0,0,0,0,0,0,2.0154,2.0154,2.0142,2.0142,2.0142,2.0127,2.0126,2.0126,2.0111,2.0111,2.011,2.011,2.0091,2.0091,2.0091,0,0,0,0,0,0,0,0,0,0,0,0,0,2.0145,2.0154,2.0142,2.0133,2.0131,2.0127,2.0126,2.0126,2.0111,2.0111,2.011,2.011,2.0091,2.0091,2.0091,2.0093,0,0,2.0089,2.0089,0,0,0,0,0,0,0,0,2.0145,2.0144,2.0134,2.0133,2.0132,2.012,2.0124,2.0115,2.0111,2.0119,2.011,2.011,2.0101,2.01,2.0097,2.0093,2.0092,2.0089,2.0089,2.0089,2.0088,0,0,0,0,0,0,0,2.0146,2.0145,2.0136,2.0134,2.0133,2.0127,2.0126,2.0122,2.0112,2.0118,2.0117,2.0115,2.01,2.0098,2.0097,2.0091,2.0089,2.0089,2.0088,2.0088,2.0084,2.0084,0,0,0,0,0,0,2.0149,2.0145,2.0137,2.0136,2.0138,2.0127,2.0125,2.0124,2.0112,2.0109,2.0115,2.0115,2.0099,2.0097,2.0096,2.0096,2.0089,2.0088,2.0088,2.0084,2.0084,2.0084,0,0,0,0,0,0,2.0149,2.0148,2.0137,2.014,2.0138,2.0127,2.0126,2.0124,2.0122,2.011,2.0107,2.0115,2.0099,2.0097,2.0093,2.0095,2.0088,2.0087,2.0084,2.0084,2.0084,2.0098,0,0,0,0,0,0,2.0149,2.0148,2.0151,2.014,2.0138,2.0137,2.0127,2.0124,2.0121,2.012,2.0109,2.0107,2.0098,2.0094,2.0093,2.0095,2.0087,2.0083,2.0084,2.0084,2.0098,2.0099,2.01,0,0,0,0,0,2.015,2.0155,2.0151,2.015,2.0141,2.0137,2.0136,2.0126,2.0122,2.0123,2.0114,2.0107,2.0095,2.0094,2.0093,2.0094,2.0083,2.0084,2.0084,2.0097,2.0099,2.01,0,0,0,0,0,0,2.0166,2.0154,2.0149,2.0152,2.0145,2.0134,2.0136,2.0129,2.0123,2.0122,2.011,2.0108,2.0105,2.0099,2.0098,2.0094,2.0088,2.0088,2.0098,2.01,2.0101,2.0102,2.0087,0,0,0,0,0,2.017,2.0169,2.0158,2.0161,2.0158,2.0147,2.0145,2.0138,2.0131,2.0128,2.012,2.0112,2.0106,2.0103,2.0097,2.0096,2.0092,2.0096,2.0098,2.0099,2.0099,2.0095,2.0096,2.0086,2.0086,2.0086,0,0,2.0178,2.0171,2.0171,2.0164,2.0158,2.0155,2.0145,2.0144,2.014,2.0128,2.0124,2.0117,2.0107,2.0104,2.0103,2.0099,2.01,2.0099,2.01,2.01,2.0095,2.0096,2.0097,2.0086,2.0086,2.0086,0,0,2.0191,2.0187,2.0188,2.0182,2.0173,2.0166,2.0166,2.0155,2.015,2.0146,2.0135,2.0131,2.0122,2.0114,2.011,2.0116,2.0108,2.0114,2.0121,2.0117,2.0118,2.0119,2.0119,2.0119,2.0114,2.0114,2.0114,0,2.0202,2.0199,2.0189,2.0187,2.0183,2.0171,2.017,2.0164,2.0154,2.0151,2.0147,2.0134,2.0126,2.012,2.0121,2.0119,2.0116,2.0116,2.0119,2.0119,2.012,2.012,2.012,2.0115,2.0115,2.0115,2.0115,0,2.0211,2.0208,2.021,2.02,2.0196,2.0195,2.0183,2.0179,2.0172,2.0164,2.0158,2.0149,2.0139,2.0137,2.0131,2.0129,2.0127,2.0121,2.0115,2.0122,2.0121,2.0121,2.0116,2.0116,2.0116,2.0115,0,0,2.0235,2.0218,2.0219,2.0213,2.0201,2.0198,2.0195,2.0186,2.0182,2.0175,2.017,2.0161,2.0155,2.0149,2.0141,2.0138,2.014,2.0132,2.0131,2.0132,2.0135,2.0139,2.014,2.0135,2.0135,2.0135,2.0135,0,2.0245,2.024,2.0229,2.0227,2.0222,2.0209,2.0206,2.0197,2.0189,2.0182,2.0173,2.0166,2.0159,2.0155,2.0152,2.0141,2.014,2.0141,2.0128,2.0128,2.0131,2.014,2.0144,2.0146,2.0136,2.0136,2.0136,0,2.0256,2.0249,2.0246,2.0231,2.0229,2.0227,2.0216,2.0211,2.0199,2.0193,2.0186,2.0176,2.0169,2.0163,2.0152,2.0153,2.0147,2.014,2.014,2.0138,2.0132,2.0137,2.0146,2.0146,2.0136,2.0136,2.0136,0,2.0271,2.0261,2.0257,2.0253,2.0237,2.0234,2.0227,2.0216,2.021,2.02,2.0196,2.0185,2.0179,2.017,2.0157,2.0154,2.0146,2.014,2.0139,2.014,2.0138,2.0139,2.0146,2.0136,2.0136,2.0136,2.0136,0,2.0283,2.0281,2.0263,2.0261,2.0257,2.0244,2.024,2.0232,2.0221,2.0215,2.0203,2.0197,2.0181,2.0172,2.0161,2.0152,2.015,2.0143,2.014,2.0144,2.0145,2.014,2.0139,2.0136,2.0136,2.0136,2.0136,0,2.03,2.0288,2.0283,2.0267,2.0263,2.0261,2.0247,2.0243,2.0233,2.0225,2.0222,2.0206,2.0195,2.0181,2.0166,2.0159,2.015,2.0146,2.0154,2.0153,2.0152,2.0152,2.0156,2.0155,2.0147,2.0147,2.0147,0,2.0307,2.0305,2.0289,2.0285,2.0278,2.0271,2.0265,2.0251,2.0245,2.023,2.0227,2.0215,2.0205,2.0187,2.0173,2.016,2.0155,2.0158,2.0154,2.0156,2.0154,2.0154,2.0152,2.0159,2.0159,2.0159,2.0159,0,2.0321,2.0315,2.0307,2.0297,2.029,2.0281,2.0271,2.0267,2.0251,2.0244,2.0233,2.0225,2.0209,2.0196,2.0181,2.0172,2.0162,2.016,2.0159,2.0163,2.0167,2.0163,2.0156,2.016,2.016,2.016,2.016,2.016,2.0332,2.0329,2.0317,2.0308,2.0299,2.0289,2.0284,2.0273,2.0264,2.025,2.0242,2.023,2.0215,2.0194,2.0185,2.0174,2.0171,2.017,2.0169,2.0169,2.0169,2.0169,2.0172,2.0172,2.0171,2.0171,2.0171,0,2.0344,2.0335,2.0327,2.0313,2.0305,2.0298,2.0285,2.0279,2.0269,2.0257,2.0247,2.0233,2.022,2.0204,2.0189,2.0184,2.0179,2.018,2.018,2.0178,2.0174,2.0176,2.0184,2.0184,2.0184,2.0184,2.0184,2.0184,2.0349,2.0342,2.0334,2.0322,2.0312,2.0302,2.0295,2.0285,2.0275,2.026,2.0249,2.0239,2.0225,2.0209,2.0196,2.0191,2.0186,2.0188,2.0182,2.0179,2.0178,2.0177,2.0179,2.0188,2.0188,2.0187,2.0187,2.0187]}]]